Orbital Elements
Epoch 2013 Sept. 25.0 TT = JDT 2456560.5
T 2013 Sept. 8.27559 TT MPCW
q 3.7549473 (2000.0) P Q
n 0.09919633 Peri. 12.51692 -0.27481629 -0.89792376
a 4.6217415 Node 94.22534 +0.84976753 -0.39412567
e 0.1875471 Incl. 20.16667 +0.44985680 +0.19595374
P 9.94
From 545 observations 1989 Mar. 4-2016 May 6, mean residual 0".6.
Nongravitational parameters A1 = -0.70, A2 = +0.0433.
|